Observations for Trim Patrick St
| Time | AQI | Temp °C | Hum % | Pres Pa | CO μg/m³ | H₂S μg/m³ | NO μg/m³ | NO₂ μg/m³ | O₃ μg/m³ | SO₂ μg/m³ | PM1 μg/m³ | PM2.5 μg/m³ | PM10 μg/m³ |
|---|---|---|---|---|---|---|---|---|---|---|---|---|---|
| Friday 28 August 2026 | |||||||||||||
| 12:31 | 2 | 27.5 | 65 | 75,841 | 0 | 0 | 2 | 1.43 | 50.27 | 12.69 | 13.14 | 21.58 | 23.73 |
| 12:29 | 2 | 27.4 | 64 | 76,081 | 0 | 0 | 2.03 | 0.01 | 29.79 | 12.68 | 18.29 | 24.62 | 27.08 |
| 12:28 | 2 | 27.5 | 59 | 76,307 | 0 | 0 | 1.96 | 1.35 | 30.42 | 11.99 | 16.57 | 23.76 | 26.13 |
| 12:26 | 2 | 27.5 | 63 | 77,133 | 0 | 0 | 1.99 | 0 | 25.98 | 12.62 | 18.29 | 25.5 | 26.99 |
| 12:25 | 2 | 27.5 | 62 | 77,693 | 0 | 0 | 1.91 | 6.88 | 39.6 | 11.84 | 14.86 | 22.66 | 24.74 |
| 12:20 | 2 | 26.8 | 66 | 81,986 | 0 | 0 | 2.05 | 5.96 | 45.58 | 10.33 | 14.86 | 22.2 | 24.42 |
| 12:16 | 2 | 26.2 | 64 | 86,754 | 0 | 0 | 2.07 | 4.45 | 53.29 | 10.1 | 17.43 | 23.83 | 26.21 |
| 12:15 | 2 | 26.1 | 63 | 88,094 | 0 | 0 | 2.18 | 3.18 | 46.85 | 9.5 | 12.29 | 18.8 | 20.68 |
| 12:14 | 2 | 26 | 64 | 89,298 | 0 | 0 | 2.32 | 2.82 | 51.39 | 10.05 | 14 | 19.43 | 21.37 |
| 12:13 | 2 | 26 | 66 | 91,517 | 0 | 0 | 2.19 | 3.21 | 39.77 | 9.41 | 14 | 20.01 | 22.01 |
| 12:12 | 2 | 25.9 | 63 | 94,220 | 0 | 0 | 2.28 | 0.02 | 31.19 | 10.87 | 15.71 | 24.04 | 26.44 |
| 12:11 | 2 | 25.9 | 65 | 97,367 | 0 | 0 | 2.06 | 7.44 | 57.9 | 9.41 | 12.29 | 17.93 | 19.72 |
| 12:10 | 2 | 25.8 | 66 | 98,090 | 0 | 0 | 2.01 | 2.25 | 51.57 | 10.41 | 16.57 | 22.21 | 24.43 |
| 12:09 | 2 | 25.8 | 63 | 101,463 | 0 | 0 | 2.24 | 2.63 | 45.91 | 9.09 | 17.43 | 24 | 26.4 |
| 12:08 | 2 | 25.8 | 61 | 104,612 | 0 | 0 | 2.34 | 0.95 | 27.47 | 9.43 | 14 | 19.75 | 21.73 |
| 12:07 | 2 | 25.8 | 65 | 108,805 | 0 | 0 | 2.08 | 0 | 14.35 | 10.39 | 16.57 | 24.49 | 26.94 |
| 12:06 | 2 | 25.8 | 69 | 2,427 | 0 | 0 | 2.15 | 13.23 | 43.02 | 10.79 | 15.71 | 21.08 | 23.19 |
| 12:05 | 2 | 25.7 | 64 | 1,612 | 0 | 0 | 2.14 | 2.79 | 39.53 | 9.43 | 16.57 | 23.88 | 26.26 |
| 12:04 | 2 | 25.7 | 66 | 4,682 | 0 | 0 | 1.99 | 2.43 | 51.43 | 8.92 | 14.86 | 22.2 | 24.42 |
| 12:03 | 2 | 25.7 | 66 | 8,681 | 0 | 0 | 1.99 | 0.62 | 34.44 | 9.2 | 13.14 | 19.99 | 21.98 |